H1 CPF 2 NER 2024 3 27 9 087 01 glonass142 H2 2001801 9142 45358 2024 3 27 0 0 0 2024 3 30 23 45 0 900 1 1 0 0 0 1 H9 10 0 60396 0.00000 0 -18533615.052 -754046.853 17528007.157 10 0 60396 900.00000 0 -16443874.027 -1667440.094 19445788.466 10 0 60396 1800.00000 0 -14242520.156 -2837655.622 20986466.506 10 0 60396 2700.00000 0 -11996122.786 -4257304.758 22120195.392 10 0 60396 3600.00000 0 -9770127.042 -5906553.230 22825008.107 10 0 60396 4500.00000 0 -7626273.593 -7753735.425 23087237.789 10 0 60396 5400.00000 0 -5620189.039 -9756474.177 22901780.522 10 0 60396 6300.00000 0 -3799246.000 -11863260.684 22272194.893 10 0 60396 7200.00000 0 -2200780.829 -14015430.105 21210636.412 10 0 60396 8100.00000 0 -850741.986 -16149451.951 19737627.778 10 0 60396 9000.00000 0 237175.538 -18199441.255 17881668.819 10 0 60396 9900.00000 0 1061874.456 -20099786.956 15678692.819 10 0 60396 10800.00000 0 1634664.284 -21787788.843 13171378.802 10 0 60396 11700.00000 0 1978543.795 -23206193.475 10408332.050 10 0 60396 12600.00000 0 2126987.234 -24305523.293 7443147.891 10 0 60396 13500.00000 0 2122285.657 -25046101.235 4333376.183 10 0 60396 14400.00000 0 2013513.555 -25399685.564 1139406.132 10 0 60396 15300.00000 0 1854206.968 -25350645.567 -2076706.959 10 0 60396 16200.00000 0 1699851.759 -24896627.937 -5252450.073 10 0 60396 17100.00000 0 1605288.975 -24048684.925 -8326072.028 10 0 60396 18000.00000 0 1622148.055 -22830858.115 -11237789.820 10 0 60396 18900.00000 0 1796417.563 -21279234.634 -13930957.541 10 0 60396 19800.00000 0 2166257.457 -19440515.010 -16353174.423 10 0 60396 20700.00000 0 2760146.707 -17370152.569 -18457309.734 10 0 60396 21600.00000 0 3595445.796 -15130142.321 -20202424.145 10 0 60396 22500.00000 0 4677436.060 -12786552.063 -21554569.309 10 0 60396 23400.00000 0 5998877.535 -10406899.140 -22487450.005 10 0 60396 24300.00000 0 7540105.042 -8057482.609 -22982936.012 10 0 60396 25200.00000 0 9269659.430 -5800782.201 -23031413.960 10 0 60396 26100.00000 0 11145428.347 -3693032.471 -22631972.542 10 0 60396 27000.00000 0 13116249.378 -1782072.894 -21792417.737 10 0 60396 27900.00000 0 15123908.978 -105562.905 -20529117.973 10 0 60396 28800.00000 0 17105453.885 1310364.525 -18866682.384 10 0 60396 29700.00000 0 18995718.527 2451955.767 -16837478.550 10 0 60396 30600.00000 0 20729962.820 3318161.624 -14480999.155 10 0 60396 31500.00000 0 22246509.932 3920422.541 -11843089.989 10 0 60396 32400.00000 0 23489273.576 4281924.662 -8975054.425 10 0 60396 33300.00000 0 24410068.926 4436359.664 -5932651.993 10 0 60396 34200.00000 0 24970610.296 4426242.172 -2775010.820 10 0 60396 35100.00000 0 25144111.892 4300857.213 436524.541 10 0 60396 36000.00000 0 24916424.694 4113925.616 3639587.138 10 0 60396 36900.00000 0 24286662.028 3921087.075 6771999.833 10 0 60396 37800.00000 0 23267287.970 3777308.038 9772981.886 10 0 60396 38700.00000 0 21883665.251 3734324.601 12584326.290 10 0 60396 39600.00000 0 20173081.983 3838228.749 15151525.033 10 0 60396 40500.00000 0 18183298.229 4127300.080 17424820.683 10 0 60396 41400.00000 0 15970673.259 4630174.544 19360164.451 10 0 60396 42300.00000 0 13597951.620 5364427.416 20920062.791 10 0 60396 43200.00000 0 11131799.956 6335630.295 22074296.970 10 0 60396 44100.00000 0 8640196.517 7536922.081 22800502.552 10 0 60396 45000.00000 0 6189781.108 8949112.478 23084598.328 10 0 60396 45900.00000 0 3843274.562 10541314.530 22921057.043 10 0 60396 46800.00000 0 1657073.755 12272080.807 22313013.031 10 0 60396 47700.00000 0 -320879.149 14090997.011 21272204.726 10 0 60396 48600.00000 0 -2052865.847 15940667.792 19818752.891 10 0 60396 49500.00000 0 -3512726.968 17759013.236 17980778.253 10 0 60396 50400.00000 0 -4686708.366 19481781.300 15793865.122 10 0 60396 51300.00000 0 -5573784.116 21045172.203 13300380.442 10 0 60396 52200.00000 0 -6185443.307 22388465.707 10548660.388 10 0 60396 53100.00000 0 -6544950.027 23456541.546 7592079.453 10 0 60396 54000.00000 0 -6686108.007 24202187.306 4488019.305 10 0 60396 54900.00000 0 -6651582.235 24588096.430 1296756.999 10 0 60396 55800.00000 0 -6490848.731 24588471.693 -1919705.985 10 0 60396 56700.00000 0 -6257859.498 24190165.757 -5098850.953 10 0 60396 57600.00000 0 -6008522.036 23393309.779 -8178861.566 10 0 60396 58500.00000 0 -5798100.778 22211402.574 -11099831.356 10 0 60396 59400.00000 0 -5678651.397 20670855.584 -13804935.023 10 0 60396 60300.00000 0 -5696597.545 18810011.975 -16241539.938 10 0 60396 61200.00000 0 -5890553.666 16677680.432 -18362235.605 10 0 60396 62100.00000 0 -6289487.011 14331244.736 -20125760.507 10 0 60396 63000.00000 0 -6911297.577 11834428.054 -21497808.044 10 0 60396 63900.00000 0 -7761876.891 9254805.376 -22451695.705 10 0 60396 64800.00000 0 -8834686.213 6661167.958 -22968884.545 10 0 60396 65700.00000 0 -10110872.748 4120849.636 -23039339.012 10 0 60396 66600.00000 0 -11559919.635 1697126.337 -22661720.387 10 0 60396 67500.00000 0 -13140803.015 -553203.228 -21843410.316 10 0 60396 68400.00000 0 -14803608.035 -2581955.480 -20600364.198 10 0 60396 69300.00000 0 -16491536.315 -4351330.191 -18956797.465 10 0 60396 70200.00000 0 -18143220.880 -5835236.356 -16944710.972 10 0 60396 71100.00000 0 -19695251.557 -7020121.670 -14603264.794 10 0 60396 72000.00000 0 -21084804.877 -7905272.423 -11978012.707 10 0 60396 72900.00000 0 -22252268.060 -8502572.926 -9120012.384 10 0 60396 73800.00000 0 -23143746.800 -8835736.268 -6084828.757 10 0 60396 74700.00000 0 -23713351.410 -8939040.466 -2931450.259 10 0 60396 75600.00000 0 -23925165.199 -8855624.852 278860.651 10 0 60396 76500.00000 0 -23754812.372 -8635419.986 3483759.938 10 0 60396 77400.00000 0 -23190559.584 -8332799.719 6621033.827 10 0 60396 78300.00000 0 -22233905.043 -8004055.555 9629806.159 10 0 60396 79200.00000 0 -20899630.529 -7704800.721 12451717.673 10 0 60396 80100.00000 0 -19215314.329 -7487414.002 15032054.303 10 0 60396 81000.00000 0 -17220325.514 -7398631.473 17320802.850 10 0 60396 81900.00000 0 -14964341.587 -7477387.701 19273614.070 10 0 60396 82800.00000 0 -12505451.132 -7752997.317 20852655.150 10 0 60396 83700.00000 0 -9907920.131 -8243753.403 22027335.886 10 0 60396 84600.00000 0 -7239714.221 -8956001.633 22774895.351 10 0 60396 85500.00000 0 -4569879.008 -9883729.219 23080838.485 10 0 60397 0.00000 0 -1965886.383 -11008686.250 22939214.809 10 0 60397 900.00000 0 508945.635 -12301035.674 22352734.099 10 0 60397 1800.00000 0 2797850.232 -13720504.105 21332717.099 10 0 60397 2700.00000 0 4852732.678 -15217988.435 19898881.749 10 0 60397 3600.00000 0 6635924.314 -16737550.774 18078968.531 10 0 60397 4500.00000 0 8121499.074 -18218719.964 15908211.402 10 0 60397 5400.00000 0 9296098.319 -19599004.223 13428663.592 10 0 60397 6300.00000 0 10159230.213 -20816510.421 10688390.299 10 0 60397 7200.00000 0 10723031.640 -21812560.506 7740543.066 10 0 60397 8100.00000 0 11011503.051 -22534195.299 4642333.060 10 0 60397 9000.00000 0 11059248.776 -22936460.082 1453922.698 10 0 60397 9900.00000 0 10909776.202 -22984375.104 -1762742.967 10 0 60397 10800.00000 0 10613425.981 -22654507.134 -4945142.237 10 0 60397 11700.00000 0 10225021.248 -21936074.656 -8031396.299 10 0 60397 12600.00000 0 9801335.851 -20831538.959 -10961477.897 10 0 60397 13500.00000 0 9398489.496 -19356654.967 -13678384.933 10 0 60397 14400.00000 0 9069380.858 -17539978.556 -16129255.426 10 0 60397 15300.00000 0 8861268.163 -15421850.082 -18266401.444 10 0 60397 16200.00000 0 8813600.446 -13052896.003 -20048241.403 10 0 60397 17100.00000 0 8956191.990 -10492110.805 -21440112.275 10 0 60397 18000.00000 0 9307817.806 -7804599.082 -22414945.750 10 0 60397 18900.00000 0 9875290.066 -5059071.818 -22953795.265 10 0 60397 19800.00000 0 10653054.992 -2325201.054 -23046203.816 10 0 60397 20700.00000 0 11623327.615 329057.015 -22690405.625 10 0 60397 21600.00000 0 12756759.093 2840059.408 -21893357.993 10 0 60397 22500.00000 0 14013608.767 5150886.545 -20670602.960 10 0 60397 23400.00000 0 15345371.851 7213465.565 -19045961.615 10 0 60397 24300.00000 0 16696794.403 8990319.222 -17051067.133 10 0 60397 25200.00000 0 18008190.861 10455868.558 -14724745.703 10 0 60397 26100.00000 0 19217966.644 11597236.305 -12112257.484 10 0 60397 27000.00000 0 20265239.534 12414518.924 -9264412.486 10 0 60397 27900.00000 0 21092449.429 12920517.547 -6236578.745 10 0 60397 28800.00000 0 21647846.374 13139940.814 -3087602.382 10 0 60397 29700.00000 0 21887751.992 13108114.814 121339.091 10 0 60397 30600.00000 0 21778498.947 12869255.996 3327927.588 10 0 60397 31500.00000 0 21297966.706 12474381.268 6469915.785 10 0 60397 32400.00000 0 20436648.912 11978944.573 9486335.182 10 0 60397 33300.00000 0 19198207.455 11440300.550 12318677.233 10 0 60397 34200.00000 0 17599489.910 10915102.863 14912024.620 10 0 60397 35100.00000 0 15670009.461 10456747.214 17216110.970 10 0 60397 36000.00000 0 13450908.855 10112966.852 19186288.937 10 0 60397 36900.00000 0 10993451.260 9923681.674 20784388.530 10 0 60397 37800.00000 0 8357100.398 9919191.162 21979449.853 10 0 60397 38700.00000 0 5607269.101 10118786.826 22748316.949 10 0 60397 39600.00000 0 2812828.897 10529842.272 23076081.982 10 0 60397 40500.00000 0 43482.931 11147419.074 22956371.847 10 0 60397 41400.00000 0 -2632890.106 11954405.225 22391471.996 10 0 60397 42300.00000 0 -5152812.104 12922180.912 21392285.201 10 0 60397 43200.00000 0 -7459596.197 14011784.445 19978125.762 10 0 60397 44100.00000 0 -9505453.898 15175530.430 18176352.614 10 0 60397 45000.00000 0 -11253232.178 16359013.344 16021847.609 10 0 60397 45900.00000 0 -12677709.057 17503413.427 13556348.135 10 0 60397 46800.00000 0 -13766394.390 18548008.882 10827645.987 10 0 60397 47700.00000 0 -14519802.860 19432789.353 7888667.122 10 0 60397 48600.00000 0 -14951188.153 20101060.921 4796449.415 10 0 60397 49500.00000 0 -15085749.766 20501932.757 1611037.753 10 0 60397 50400.00000 0 -14959346.115 20592580.086 -1605682.174 10 0 60397 51300.00000 0 -14616768.468 20340187.141 -4791188.623 10 0 60397 52200.00000 0 -14109648.979 19723487.001 -7883543.237 10 0 60397 53100.00000 0 -13494091.683 18733832.078 -10822600.820 10 0 60397 54000.00000 0 -12828127.238 17375748.706 -13551185.181 10 0 60397 54900.00000 0 -12169099.723 15666951.133 -16016207.475 10 0 60397 55800.00000 0 -11571096.735 13637813.061 -18169704.566 10 0 60397 56700.00000 0 -11082532.143 11330317.838 -19969776.721 10 0 60397 57600.00000 0 -10743984.282 8796530.407 -21381406.065 10 0 60397 58500.00000 0 -10586381.434 6096654.275 -22377139.728 10 0 60397 59400.00000 0 -10629611.582 3296754.163 -22937624.410 10 0 60397 60300.00000 0 -10881615.350 466238.935 -23051982.161 10 0 60397 61200.00000 0 -11338000.539 -2324790.653 -22718020.252 10 0 60397 62100.00000 0 -11982194.524 -5008219.279 -21942271.358 10 0 60397 63000.00000 0 -12786128.086 -7520508.511 -20739863.458 10 0 60397 63900.00000 0 -13711421.778 -9805095.034 -19134222.190 10 0 60397 64800.00000 0 -14711024.702 -11814496.568 -17156611.569 10 0 60397 65700.00000 0 -15731236.524 -13512038.618 -14845522.089 10 0 60397 66600.00000 0 -16714027.285 -14873131.143 -12245918.206 10 0 60397 67500.00000 0 -17599557.005 -15886043.092 -9408359.981 10 0 60397 68400.00000 0 -18328788.599 -16552143.908 -6388016.113 10 0 60397 69300.00000 0 -18846083.614 -16885603.390 -3243587.876 10 0 60397 70200.00000 0 -19101671.058 -16912564.179 -36165.213 10 0 60397 71100.00000 0 -19053884.944 -16669823.196 3171962.418 10 0 60397 72000.00000 0 -18671075.977 -16203079.010 6318516.881 10 0 60397 72900.00000 0 -17933116.645 -15564820.206 9342440.085 10 0 60397 73800.00000 0 -16832436.168 -14811944.763 12185076.932 10 0 60397 74700.00000 0 -15374541.560 -14003211.464 14791309.508 10 0 60397 75600.00000 0 -13578002.688 -13196631.098 17110620.760 10 0 60397 76500.00000 0 -11473901.527 -12446907.397 19098067.484 10 0 60397 77400.00000 0 -9104768.171 -11803035.187 20715144.434 10 0 60397 78300.00000 0 -6523047.281 -11306156.361 21930523.570 10 0 60397 79200.00000 0 -3789157.965 -10987763.237 22720655.023 10 0 60397 80100.00000 0 -969226.743 -10868324.250 23070218.892 10 0 60397 81000.00000 0 1867413.466 -10956389.224 22972419.757 10 0 60397 81900.00000 0 4650855.911 -11248211.554 22429118.643 10 0 60397 82800.00000 0 7313276.260 -11727903.186 21450799.898 10 0 60397 83700.00000 0 9791503.716 -12368116.204 20056373.453 10 0 60397 84600.00000 0 12029401.552 -13131222.970 18272815.667 10 0 60397 85500.00000 0 13979959.201 -13970946.002 16134654.985 10 0 60398 0.00000 0 15607009.654 -14834369.803 13683311.597 10 0 60398 900.00000 0 16886502.047 -15664251.267 10966301.561 10 0 60398 1800.00000 0 17807274.684 -16401530.782 8036323.263 10 0 60398 2700.00000 0 18371299.335 -16987940.099 4950238.800 10 0 60398 3600.00000 0 18593384.538 -17368595.778 1767972.813 10 0 60398 4500.00000 0 18500351.478 -17494468.822 -1448651.276 10 0 60398 5400.00000 0 18129717.129 -17324625.368 -4637114.665 10 0 60398 6300.00000 0 17527940.456 -16828142.759 -7735422.450 10 0 60398 7200.00000 0 16748306.005 -15985618.747 -10683314.398 10 0 60398 8100.00000 0 15848534.743 -14790208.708 -13423442.995 10 0 60398 9000.00000 0 14888223.597 -13248145.613 -15902495.102 10 0 60398 9900.00000 0 13926222.465 -11378719.396 -18072234.705 10 0 60398 10800.00000 0 13018060.050 -9213715.264 -19890445.969 10 0 60398 11700.00000 0 12213527.719 -6796333.286 -21321757.906 10 0 60398 12600.00000 0 11554523.715 -4179633.589 -22338334.452 10 0 60398 13500.00000 0 11073248.900 -1424571.367 -22920416.552 10 0 60398 14400.00000 0 10790830.110 1402296.909 -23056705.888 10 0 60398 15300.00000 0 10716429.075 4231340.912 -22744582.979 10 0 60398 16200.00000 0 10846874.155 6992512.668 -21990155.688 10 0 60398 17100.00000 0 11166830.079 9618021.447 -20808137.408 10 0 60398 18000.00000 0 11649498.102 12044916.414 -19221557.476 10 0 60398 18900.00000 0 12257816.605 14217470.111 -17261309.599 10 0 60398 19800.00000 0 12946111.061 16089264.183 -14965547.119 10 0 60398 20700.00000 0 13662123.277 17624891.207 -12378937.041 10 0 60398 21600.00000 0 14349333.833 18801202.622 -9551787.424 10 0 60398 22500.00000 0 14949479.238 19608051.781 -6539065.288 10 0 60398 23400.00000 0 15405157.046 20048502.360 -3399324.455 10 0 60398 24300.00000 0 15662408.551 20138494.814 -193564.481 10 0 60398 25200.00000 0 15673169.604 19905986.366 3015956.747 10 0 60398 26100.00000 0 15397485.745 19389602.081 6166933.275 10 0 60398 27000.00000 0 14805397.922 18636855.072 9198220.377 10 0 60398 27900.00000 0 13878418.990 17702011.783 12051019.253 10 0 60398 28800.00000 0 12610538.545 16643693.024 14670014.073 10 0 60398 29700.00000 0 11008713.490 15522312.165 17004439.571 10 0 60398 30600.00000 0 9092823.273 14397458.384 19009058.931 10 0 60398 31500.00000 0 6895091.088 13325334.798 20645033.627 10 0 60398 32400.00000 0 4458994.431 12356358.623 21880669.171 10 0 60398 33300.00000 0 1837709.496 11533023.449 22692023.160 10 0 60398 34200.00000 0 -907846.956 10888112.570 23063364.628 10 0 60398 35100.00000 0 -3711298.144 10443337.532 22987476.453 10 0 60398 36000.00000 0 -6503316.957 10208458.362 22465795.373 10 0 60398 36900.00000 0 -9214262.009 10180921.911 21508386.984 10 0 60398 37800.00000 0 -11776832.141 10346033.330 20133755.992 10 0 60398 38700.00000 0 -14128630.426 10677653.539 18368494.847 10 0 60398 39600.00000 0 -16214532.303 11139393.742 16246776.780 10 0 60398 40500.00000 0 -17988760.185 11686257.227 13809702.131 10 0 60398 41400.00000 0 -19416578.798 12266659.929 11104509.610 10 0 60398 42300.00000 0 -20475540.855 12824745.058 8183666.903 10 0 60398 43200.00000 0 -21156231.211 13302894.528 5103857.503 10 0 60398 44100.00000 0 -21462478.362 13644331.170 1924882.904 10 0 60398 45000.00000 0 -21411024.423 13795701.518 -1291498.644 10 0 60398 45900.00000 0 -21030667.434 13709529.357 -4482774.175 10 0 60398 46800.00000 0 -20360912.190 13346435.358 -7586895.077 10 0 60398 47700.00000 0 -19450186.602 12677027.713 -10543488.864 10 0 60398 48600.00000 0 -18353699.112 11683382.495 -13295039.355 10 0 60398 49500.00000 0 -17131027.936 10360049.686 -15788011.589 10 0 60398 50400.00000 0 -15843544.334 8714540.924 -17973898.905 10 0 60398 51300.00000 0 -14551779.024 6767276.908 -19810171.274 10 0 60398 52200.00000 0 -13312843.210 4550995.307 -21261106.133 10 0 60398 53100.00000 0 -12178013.189 2109642.777 -22298485.361 10 0 60398 54000.00000 0 -11190580.406 -503203.547 -22902144.861 10 0 60398 54900.00000 0 -10384057.363 -3226319.972 -23060366.234 10 0 60398 55800.00000 0 -9780814.649 -5993143.417 -22770103.110 10 0 60398 56700.00000 0 -9391205.949 -8734306.228 -22037037.989 10 0 60398 57600.00000 0 -9213217.247 -11380293.477 -20875468.737 10 0 60398 58500.00000 0 -9232654.245 -13864112.522 -19308027.092 10 0 60398 59400.00000 0 -9423859.307 -16123864.061 -17365234.827 10 0 60398 60300.00000 0 -9750926.872 -18105108.105 -15084906.253 10 0 60398 61200.00000 0 -10169365.289 -19762926.775 -12511408.843 10 0 60398 62100.00000 0 -10628134.140 -21063598.579 -9694796.438 10 0 60398 63000.00000 0 -11071970.295 -21985815.126 -6689832.088 10 0 60398 63900.00000 0 -11443903.774 -22521390.336 -3554919.825 10 0 60398 64800.00000 0 -11687856.465 -22675433.671 -350966.469 10 0 60398 65700.00000 0 -11751213.355 -22465981.332 2859804.040 10 0 60398 66600.00000 0 -11587257.154 -21923102.177 6015060.326 10 0 60398 67500.00000 0 -11157363.081 -21087517.160 9053573.453 10 0 60398 68400.00000 0 -10432860.848 -20008791.342 11916403.339 10 0 60398 69300.00000 0 -9396485.002 -18743175.344 14548038.628 10 0 60398 70200.00000 0 -8043352.198 -17351187.490 16897468.135 10 0 60398 71100.00000 0 -6381423.868 -15895038.413 18919163.551 10 0 60398 72000.00000 0 -4431434.284 -14436006.124 20573954.959 10 0 60398 72900.00000 0 -2226286.243 -13031871.196 21829782.999 10 0 60398 73800.00000 0 190061.378 -11734518.870 22662313.967 10 0 60398 74700.00000 0 2764168.950 -10587807.639 23055406.701 10 0 60398 75600.00000 0 5435090.085 -9625792.611 23001422.867 10 0 60398 76500.00000 0 8136663.680 -8871377.059 22501375.055 10 0 60398 77400.00000 0 10800030.274 -8335447.828 21564909.906 10 0 60398 78300.00000 0 13356269.669 -8016530.207 20210126.397 10 0 60398 79200.00000 0 15739051.652 -7900976.337 18463232.259 10 0 60398 80100.00000 0 17887190.728 -7963679.165 16358044.416 10 0 60398 81000.00000 0 19746999.519 -8169282.006 13935342.188 10 0 60398 81900.00000 0 21274343.387 -8473833.073 11242084.779 10 0 60398 82800.00000 0 22436310.881 -8826815.537 8330507.339 10 0 60398 83700.00000 0 23212430.261 -9173467.671 5257112.377 10 0 60398 84600.00000 0 23595381.112 -9457295.149 2081575.570 10 0 60398 85500.00000 0 23591170.962 -9622669.064 -1134412.921 10 0 60399 0.00000 0 23218769.335 -9617399.286 -4328348.744 10 0 60399 900.00000 0 22509214.180 -9395173.413 -7438133.271 10 0 60399 1800.00000 0 21504228.821 -8917757.065 -10403284.521 10 0 60399 2700.00000 0 20254407.049 -8156861.155 -13166120.542 10 0 60399 3600.00000 0 18817043.442 -7095595.681 -15672887.240 10 0 60399 4500.00000 0 17253700.494 -5729447.160 -17874809.717 10 0 60399 5400.00000 0 15627615.344 -4066736.933 -19729045.876 10 0 60399 6300.00000 0 14001055.614 -2128539.546 -21199523.386 10 0 60399 7200.00000 0 12432735.822 51936.676 -22257643.534 10 0 60399 8100.00000 0 10975403.095 2430482.142 -22882838.295 10 0 60399 9000.00000 0 9673693.487 4953485.176 -23062969.922 10 0 60399 9900.00000 0 8562348.653 7559931.852 -22794565.498 10 0 60399 10800.00000 0 7664867.174 10183723.669 -22082882.119 10 0 60399 11700.00000 0 6992646.422 12756216.951 -20941801.702 10 0 60399 12600.00000 0 6544650.070 15208878.467 -19393557.594 10 0 60399 13500.00000 0 6307614.144 17475947.006 -17468298.486 10 0 60399 14400.00000 0 6256781.818 19496990.252 -15203498.179 10 0 60399 15300.00000 0 6357134.819 21219250.683 -12643222.792 10 0 60399 16200.00000 0 6565068.436 22599683.020 -9837269.813 10 0 60399 17100.00000 0 6830438.331 23606598.662 -6840195.886 10 0 60399 18000.00000 0 7098891.773 24220849.024 -3710252.556 10 0 60399 18900.00000 0 7314383.903 24436499.058 -508251.005 10 0 60399 19800.00000 0 7421771.907 24260963.708 2703621.814 10 0 60399 20700.00000 0 7369376.816 23714602.600 5863012.189 10 0 60399 21600.00000 0 7111404.156 22829791.017 8908610.015 10 0 60399 22500.00000 0 6610120.781 21649507.133 11781336.866 10 0 60399 23400.00000 0 5837695.672 20225495.604 14425488.614 10 0 60399 24300.00000 0 4777626.782 18616085.179 16789810.701 10 0 60399 25200.00000 0 3425693.445 16883752.095 18828485.614 10 0 60399 26100.00000 0 1790393.837 15092531.373 20502014.062 10 0 60399 27000.00000 0 -107151.554 13305384.022 21777973.533 10 0 60399 27900.00000 0 -2233827.325 11581629.616 22631640.411 10 0 60399 28800.00000 0 -4545656.312 9974550.713 23046464.351 10 0 60399 29700.00000 0 -6989392.555 8529268.158 23014386.407 10 0 60399 30600.00000 0 -9504509.201 7280974.919 22535995.164 10 0 60399 31500.00000 0 -12025500.134 6253601.201 21620517.953 10 0 60399 32400.00000 0 -14484401.144 5458965.709 20285647.151 10 0 60399 33300.00000 0 -16813427.205 4896447.818 18557204.386 10 0 60399 34200.00000 0 -18947617.331 4553193.882 16468648.399 10 0 60399 35100.00000 0 -20827377.854 4404848.739 14060435.192 10 0 60399 36000.00000 0 -22400818.747 4416781.525 11379241.813 10 0 60399 36900.00000 0 -23625785.771 4545754.257 8477067.980 10 0 60399 37800.00000 0 -24471503.517 4741962.831 5410232.162 10 0 60399 38700.00000 0 -24919760.332 4951364.227 2238281.099 10 0 60399 39600.00000 0 -24965585.034 5118191.337 -977166.252 10 0 60399 40500.00000 0 -24617386.560 5187548.600 -4173617.791 10 0 60399 41400.00000 0 -23896550.221 5107977.862 -7288926.722 10 0 60399 42300.00000 0 -22836507.178 4833884.878 -10262505.041 10 0 60399 43200.00000 0 -21481316.102 4327722.579 -13036507.781 10 0 60399 44100.00000 0 -19883816.619 3561837.389 -15556964.269 10 0 60399 45000.00000 0 -18103432.328 2519899.102 -17774833.659 10 0 60399 45900.00000 0 -16203715.981 1197852.483 -19646963.721 10 0 60399 46800.00000 0 -14249740.162 -395651.006 -21136933.855 10 0 60399 47700.00000 0 -12305443.281 -2239360.888 -22215765.770 10 0 60399 48600.00000 0 -10431042.283 -4300071.513 -22862487.997 10 0 60399 49500.00000 0 -8680620.470 -6533776.185 -23064543.406 10 0 60399 50400.00000 0 -7099991.236 -8887284.158 -22818031.988 10 0 60399 51300.00000 0 -5724926.666 -11300233.661 -22127784.434 10 0 60399 52200.00000 0 -4579824.416 -13707417.447 -21007265.293 10 0 60399 53100.00000 0 -3676867.753 -16041324.207 -19478307.760 10 0 60399 54000.00000 0 -3015712.779 -18234790.094 -17570685.417 10 0 60399 54900.00000 0 -2583714.614 -20223649.947 -15321529.308 10 0 60399 55800.00000 0 -2356681.646 -21949277.715 -12774601.838 10 0 60399 56700.00000 0 -2300124.636 -23360910.153 -9979441.713 10 0 60399 57600.00000 0 -2370946.697 -24417656.977 -6990396.740 10 0 60399 58500.00000 0 -2519501.528 -25090113.687 -3865563.595 10 0 60399 59400.00000 0 -2691931.853 -25361510.062 -665655.492 10 0 60399 60300.00000 0 -2832688.240 -25228346.833 2547179.863 10 0 60399 61200.00000 0 -2887120.996 -24700494.529 5710568.620 10 0 60399 62100.00000 0 -2804034.920 -23800751.185 8763121.662 10 0 60399 63000.00000 0 -2538098.458 -22563878.213 11645624.309 10 0 60399 63900.00000 0 -2052005.124 -21035155.582 14302181.689 10 0 60399 64800.00000 0 -1318295.733 -19268517.378 16681297.773 10 0 60399 65700.00000 0 -320764.313 -17324346.120 18736867.597 10 0 60399 66600.00000 0 944611.780 -15267018.147 20429064.020 10 0 60399 67500.00000 0 2469257.152 -13162302.361 21725102.632 10 0 60399 68400.00000 0 4232117.183 -11074720.352 22599870.847 10 0 60399 69300.00000 0 6200306.315 -9064977.201 23036409.754 10 0 60399 70200.00000 0 8330259.917 -7187569.038 23026240.083 10 0 60399 71100.00000 0 10569343.033 -5488665.886 22569526.373 10 0 60399 72000.00000 0 12857850.420 -4004356.905 21675076.321 10 0 60399 72900.00000 0 15131316.073 -2759330.077 20360175.108 10 0 60399 73800.00000 0 17323037.511 -1766040.449 18650257.412 10 0 60399 74700.00000 0 19366710.880 -1024400.928 16578422.714 10 0 60399 75600.00000 0 21199068.070 -522007.954 14184802.374 10 0 60399 76500.00000 0 22762406.499 -234892.171 11515789.714 10 0 60399 77400.00000 0 24006906.177 -128762.296 8623147.179 10 0 60399 78300.00000 0 24892637.154 -160689.642 5563007.091 10 0 60399 79200.00000 0 25391172.951 -281162.034 2394784.877 10 0 60399 80100.00000 0 25486741.761 -436420.130 -819974.313 10 0 60399 81000.00000 0 25176866.430 -570976.919 -4018793.117 10 0 60399 81900.00000 0 24472465.623 -630213.140 -7139479.985 10 0 60399 82800.00000 0 23397411.256 -562937.929 -10121343.426 10 0 60399 83700.00000 0 21987560.287 -323805.220 -12906378.169 10 0 60399 84600.00000 0 20289301.207 124517.543 -15440399.490 10 0 60399 85500.00000 0 18357676.101 809521.442 -17674102.900 99